DW5735 Weather Reports


Display with metric or nautical units.
time (UTC)temp
F
wind
direction
speed
MPH
gust
MPH
rain 1hr
in
rain 24hr
in
rain mn
in
humidity
%
barometer
mb
20260502232336 71 283 0.0 2.0 0.00 0.00 0.00 44 1014.8
20260502231831 72 13 0.0 1.0 0.00 0.00 0.00 45 1014.9
20260502231607 72 236 0.0 1.0 0.00 0.00 0.00 42 1014.2
20260502231319 73 252 0.0 1.0 0.00 0.00 0.00 44 1014.9
20260502230839 73 242 0.0 1.0 0.00 0.00 0.00 35 1014.9
20260502230401 71 226 0.0 2.0 0.00 0.00 0.00 38 1015.0
20260502225835 70 232 1.0 4.0 0.00 0.00 0.00 48 1015.1
20260502225348 69 228 1.0 4.0 0.00 0.00 0.00 48 1015.2
20260502224835 71 245 0.0 3.0 0.00 0.00 0.00 49 1015.3
20260502224601 71 221 0.0 3.0 0.00 0.00 0.00 47 1014.6
20260502224340 71 228 0.0 1.0 0.00 0.00 0.00 39 1015.4
20260502223824 70 235 0.0 3.0 0.00 0.00 0.00 44 1015.4
20260502223321 70 222 1.0 4.0 0.00 0.00 0.00 45 1015.4
20260502223029 69 231 2.0 4.0 0.00 0.00 0.00 45 1014.8
20260502222323 66 228 0.0 5.0 0.00 0.00 0.00 53 1015.6
20260502221840 64 221 4.0 7.0 0.00 0.00 0.00 63 1015.6
20260502221558 65 249 4.0 7.0 0.00 0.00 0.00 63 1015.0
20260502221329 67 270 5.0 7.0 0.00 0.00 0.00 56 1015.7
20260502220835 68 245 6.0 7.0 0.00 0.00 0.00 55 1015.7
20260502220341 70 198 4.0 5.0 0.00 0.00 0.00 52 1015.8
20260502220109 70 235 1.0 3.0 0.00 0.00 0.00 47 1015.1
20260502215828 70 232 1.0 3.0 0.00 0.00 0.00 46 1015.9
20260502215333 68 219 1.0 3.0 0.00 0.00 0.00 50 1015.9
20260502214840 68 245 0.0 2.0 0.00 0.00 0.00 48 1016.1
20260502214603 68 240 0.0 5.0 0.00 0.00 0.00 47 1015.5
20260502214344 67 221 0.0 5.0 0.00 0.00 0.00 51 1016.2
20260502213823 68 270 2.0 5.0 0.00 0.00 0.00 53 1016.3
20260502213104 69 231 2.0 5.0 0.00 0.00 0.00 44 1015.6
20260502212831 68 225 1.0 6.0 0.00 0.00 0.00 46 1016.4
20260502212325 67 231 5.0 6.0 0.00 0.00 0.00 51 1016.5
20260502211833 69 238 5.0 7.0 0.00 0.00 0.00 46 1016.6
20260502211604 68 235 1.0 5.0 0.00 0.00 0.00 51 1016.0
20260502211326 68 219 1.0 5.0 0.00 0.00 0.00 50 1016.6
20260502210840 66 226 3.0 6.0 0.00 0.00 0.00 55 1016.7
20260502210331 64 210 3.0 8.0 0.00 0.00 0.00 61 1016.8
20260502210050 64 224 1.0 9.0 0.00 0.00 0.00 62 1016.1
20260502205845 64 221 3.0 10.0 0.00 0.00 0.00 63 1016.9
20260502204835 66 221 7.0 10.0 0.00 0.00 0.00 61 1016.9
20260502204557 66 243 7.0 10.0 0.00 0.00 0.00 58 1016.3
20260502204349 68 239 7.0 10.0 0.00 0.00 0.00 57 1017.0
20260502203824 69 222 4.0 6.0 0.00 0.00 0.00 47 1017.1
20260502203323 68 240 3.0 4.0 0.00 0.00 0.00 47 1017.3
20260502203107 68 235 3.0 4.0 0.00 0.00 0.00 45 1016.7
20260502202828 68 231 4.0 5.0 0.00 0.00 0.00 46 1017.3
20260502202331 67 228 4.0 6.0 0.00 0.00 0.00 50 1017.4
20260502201828 66 236 6.0 6.0 0.00 0.00 0.00 53 1017.5
20260502201601 66 236 6.0 7.0 0.00 0.00 0.00 51 1016.9
20260502201328 67 238 5.0 6.0 0.00 0.00 0.00 51 1017.5
20260502200821 68 232 4.0 5.0 0.00 0.00 0.00 53 1017.6
20260502200318 69 238 2.0 5.0 0.00 0.00 0.00 48 1017.7
20260502200058 68 238 0.0 5.0 0.00 0.00 0.00 49 1017.1
20260502195834 68 232 0.0 5.0 0.00 0.00 0.00 49 1017.8
20260502195341 67 214 3.0 4.0 0.00 0.00 0.00 49 1017.9
20260502194838 67 245 1.0 3.0 0.00 0.00 0.00 52 1018.0
20260502194337 67 246 0.0 0.0 0.00 0.00 0.00 49 1018.1
20260502193819 67 239 0.0 0.0 0.00 0.00 0.00 49 1018.1
20260502193337 65 228 0.0 0.0 0.00 0.00 0.00 51 1018.2
20260502193103 64 219 0.0 0.0 0.00 0.00 0.00 54 1017.6
20260502192848 64 219 0.0 0.0 0.00 0.00 0.00 54 1018.2
20260502192343 63 226 0.0 0.0 0.00 0.00 0.00 60 1018.3
20260502191843 63 238 0.0 0.0 0.00 0.00 0.00 62 1018.4
20260502191609 63 243 0.0 0.0 0.00 0.00 0.00 59 1017.9
20260502191413 63 236 0.0 0.0 0.00 0.00 0.00 55 1018.5
20260502190819 63 239 0.0 0.0 0.00 0.00 0.00 62 1018.6
20260502190332 63 252 0.0 0.0 0.00 0.00 0.00 54 1018.6
20260502190111 62 250 0.0 0.0 0.00 0.00 0.00 59 1018.1
20260502185823 63 246 0.0 0.0 0.00 0.00 0.00 59 1018.7
20260502185326 63 236 0.0 0.0 0.00 0.00 0.00 52 1018.8
20260502184826 63 263 0.0 1.0 0.00 0.00 0.00 57 1018.9
20260502184511 62 221 0.0 1.0 0.00 0.00 0.00 59 1018.3
20260502184330 62 238 0.0 1.0 0.00 0.00 0.00 61 1019.0
20260502183834 62 239 0.0 0.0 0.00 0.00 0.00 58 1018.9
20260502183324 62 238 0.0 1.0 0.00 0.00 0.00 54 1019.1
20260502183107 62 224 0.0 2.0 0.00 0.00 0.00 54 1018.6
20260502182321 61 220 0.0 2.0 0.00 0.00 0.00 61 1019.2
20260502181850 61 231 0.0 3.0 0.00 0.00 0.00 61 1019.2
20260502181555 60 236 0.0 3.0 0.00 0.00 0.00 61 1018.7
20260502181332 61 236 0.0 3.0 0.00 0.00 0.00 61 1019.3
20260502180838 60 200 0.0 3.0 0.00 0.00 0.00 64 1019.3
20260502180342 59 222 1.0 3.0 0.00 0.00 0.00 64 1019.5
20260502170333 56 250 0.0 1.0 0.00 0.00 0.00 75 1019.9
20260502164336 55 243 0.0 0.0 0.00 0.00 0.00 72 1019.9
20260502163830 55 222 0.0 1.0 0.00 0.00 0.00 74 1019.9
20260502163333 55 236 0.0 1.0 0.00 0.00 0.00 73 1019.9
20260502163106 55 239 0.0 1.0 0.00 0.00 0.00 72 1019.4
20260502162840 55 246 0.0 1.0 0.00 0.00 0.00 72 1019.9
20260502162332 55 231 0.0 1.0 0.00 0.00 0.00 74 1019.9
20260502161854 55 248 0.0 1.0 0.00 0.00 0.00 75 1019.9
20260502161626 54 245 0.0 1.0 0.00 0.00 0.00 72 1019.4
20260502161338 55 243 0.0 1.0 0.00 0.00 0.00 73 1019.9
20260502160822 55 236 0.0 1.0 0.00 0.00 0.00 71 1019.9
20260502160343 55 243 0.0 1.0 0.00 0.00 0.00 71 1020.0
20260502152323 55 27 0.0 0.0 0.00 0.00 0.00 68 1019.7
20260502151831 54 27 0.0 0.0 0.00 0.00 0.00 69 1019.7
20260502151632 54 27 0.0 0.0 0.00 0.00 0.00 69 1019.2
20260502151341 54 29 0.0 0.0 0.00 0.00 0.00 69 1019.8
20260502150335 54 71 0.0 0.0 0.00 0.00 0.00 69 1019.7
20260502130335 50 42 0.0 0.0 0.00 0.00 0.00 76 1019.1
20260502123321 48 75 0.0 1.0 0.00 0.00 0.00 76 1018.8
20260502123110 48 82 0.0 1.0 0.00 0.00 0.00 77 1018.3
20260502122832 49 80 0.0 1.0 0.00 0.00 0.00 77 1018.7
20260502122342 49 34 0.0 0.0 0.00 0.00 0.00 75 1018.7
20260502121820 49 41 0.0 0.0 0.00 0.00 0.00 75 1018.6
20260502121601 48 82 0.0 0.0 0.00 0.00 0.00 76 1018.1
20260502121329 49 68 0.0 0.0 0.00 0.00 0.00 77 1018.6
20260502120828 49 77 0.0 0.0 0.00 0.00 0.00 77 1018.5
20260502120327 49 80 0.0 0.0 0.00 0.00 0.00 77 1018.5
20260502115837 49 94 0.0 0.0 0.00 0.00 0.00 77 1018.5
20260502115335 49 94 0.0 0.0 0.00 0.00 0.00 76 1018.5
20260502114843 50 101 0.0 0.0 0.00 0.00 0.00 77 1018.5
20260502114616 49 60 0.0 0.0 0.00 0.00 0.00 76 1017.8
20260502113829 50 52 0.0 0.0 0.00 0.00 0.00 76 1018.5
20260502113324 50 87 0.0 0.0 0.00 0.00 0.00 75 1018.3
20260502113104 50 82 0.0 0.0 0.00 0.00 0.00 75 1017.8
20260502112819 50 89 0.0 0.0 0.00 0.00 0.00 75 1018.4
20260502112325 50 90 0.0 0.0 0.00 0.00 0.00 74 1018.2
20260502111841 50 91 0.0 0.0 0.00 0.00 0.00 74 1018.2
20260502111605 50 91 0.0 0.0 0.00 0.00 0.00 74 1017.6
20260502111344 51 91 0.0 0.0 0.00 0.00 0.00 74 1018.2
20260502110828 51 75 0.0 0.0 0.00 0.00 0.00 73 1018.1
20260502110324 52 75 0.0 0.0 0.00 0.00 0.00 74 1018.1
20260502110103 51 75 0.0 0.0 0.00 0.00 0.00 73 1017.5
20260502105833 52 49 0.0 0.0 0.00 0.00 0.00 73 1018.0
20260502105335 52 91 0.0 0.0 0.00 0.00 0.00 73 1018.0
20260502104841 52 101 0.0 0.0 0.00 0.00 0.00 74 1018.0
20260502104602 52 98 0.0 0.0 0.00 0.00 0.00 74 1017.5
20260502104330 52 100 0.0 0.0 0.00 0.00 0.00 74 1018.0
20260502103835 52 99 0.0 0.0 0.00 0.00 0.00 74 1018.0
20260502103354 52 111 0.0 0.0 0.00 0.00 0.00 74 1017.9
20260502103117 52 78 0.0 0.0 0.00 0.00 0.00 74 1017.4
20260502102821 52 97 0.0 0.0 0.00 0.00 0.00 73 1017.8
20260502102329 53 109 0.0 0.0 0.00 0.00 0.00 73 1017.9
20260502101614 53 108 0.0 0.0 0.00 0.00 0.00 73 1017.3
20260502101342 53 110 0.0 0.0 0.00 0.00 0.00 72 1017.8
20260502100835 53 83 0.0 0.0 0.00 0.00 0.00 72 1017.7
20260502100326 53 85 0.0 1.0 0.00 0.00 0.00 71 1017.6
20260502100134 53 74 0.0 1.0 0.00 0.00 0.00 71 1017.1
20260502091336 53 82 0.0 0.0 0.00 0.00 0.00 73 1017.4
20260502090819 53 82 0.0 0.0 0.00 0.00 0.00 71 1017.4
20260502090339 53 82 0.0 0.0 0.00 0.00 0.00 72 1017.4
20260502080107 55 95 0.0 0.0 0.00 0.00 0.00 66 1016.4
20260502071328 58 112 0.0 0.0 0.00 0.00 0.00 66 1016.7
20260502070834 59 226 0.0 0.0 0.00 0.00 0.00 65 1016.6
20260502070321 59 165 0.0 0.0 0.00 0.00 0.00 64 1016.5
20260502070104 59 82 0.0 0.0 0.00 0.00 0.00 63 1015.9
20260502065818 60 9 0.0 0.0 0.00 0.00 0.00 63 1016.4
20260502065350 61 97 0.0 0.0 0.00 0.00 0.00 58 1016.4
20260502064834 61 86 0.0 0.0 0.00 0.00 0.00 58 1016.4
20260502064614 61 96 0.0 0.0 0.00 0.00 0.00 58 1015.8
20260502064346 61 96 0.0 0.0 0.00 0.00 0.00 58 1016.4
20260502063820 61 96 0.0 0.0 0.00 0.00 0.00 58 1016.4
20260502063325 61 84 0.0 0.0 0.00 0.00 0.00 59 1016.3
20260502063108 60 84 0.0 0.0 0.00 0.00 0.00 59 1015.6
20260502062826 61 91 0.0 0.0 0.00 0.00 0.00 59 1016.3
20260502062351 61 94 0.0 0.0 0.00 0.00 0.00 59 1016.1
20260502061837 62 121 0.0 1.0 0.00 0.00 0.00 58 1016.0
20260502061626 61 117 0.0 1.0 0.00 0.00 0.00 59 1015.4
20260502061329 62 106 0.0 1.0 0.00 0.00 0.00 59 1016.0
20260502060901 63 103 0.0 2.0 0.00 0.00 0.00 59 1015.9
20260502060320 63 315 0.0 2.0 0.00 0.00 0.00 60 1015.9
20260502060056 63 295 0.0 2.0 0.00 0.00 0.00 57 1015.2
20260502055823 64 231 0.0 1.0 0.00 0.00 0.00 56 1015.8
20260502055334 64 291 0.0 2.0 0.00 0.00 0.00 55 1015.8
20260502054558 64 94 0.0 10.0 0.00 0.00 0.00 53 1015.1
20260502054344 65 16 3.0 10.0 0.00 0.00 0.00 50 1015.6
20260502053910 64 330 5.0 8.0 0.00 0.00 0.00 57 1015.6
20260502053332 64 90 2.0 4.0 0.00 0.00 0.00 49 1015.3
20260502053116 63 96 0.0 4.0 0.00 0.00 0.00 52 1014.7
20260502052838 62 92 0.0 1.0 0.00 0.00 0.00 56 1015.2
20260502052353 63 42 0.0 1.0 0.00 0.00 0.00 61 1015.4
20260502051837 63 68 0.0 0.0 0.00 0.00 0.00 61 1015.6
20260502051341 64 236 0.0 1.0 0.00 0.00 0.00 56 1015.8
20260502050329 64 176 0.0 0.0 0.00 0.00 0.00 52 1015.6
20260502050105 64 176 0.0 0.0 0.00 0.00 0.00 51 1015.0
20260502045824 64 163 0.0 0.0 0.00 0.00 0.00 52 1015.5
20260502045335 64 146 0.0 0.0 0.00 0.00 0.00 52 1015.4
20260502044819 64 77 0.0 0.0 0.00 0.00 0.00 54 1015.3
20260502044605 63 78 0.0 0.0 0.00 0.00 0.00 55 1014.8
20260502044339 64 76 0.0 0.0 0.00 0.00 0.00 55 1015.3
20260502043823 64 76 0.0 0.0 0.00 0.00 0.00 54 1015.1
20260502043354 64 87 0.0 0.0 0.00 0.00 0.00 56 1015.1
20260502043110 63 94 0.0 0.0 0.00 0.00 0.00 57 1014.6
20260502042833 64 236 0.0 0.0 0.00 0.00 0.00 56 1015.1
20260502042340 64 219 0.0 0.0 0.00 0.00 0.00 56 1015.1
20260502041829 65 233 0.0 1.0 0.00 0.00 0.00 57 1014.9
20260502041613 66 278 0.0 1.0 0.00 0.00 0.00 54 1014.3
20260502041322 67 276 0.0 1.0 0.00 0.00 0.00 47 1014.9
20260502040849 65 267 0.0 0.0 0.00 0.00 0.00 47 1014.8
20260502040335 64 126 0.0 0.0 0.00 0.00 0.00 51 1014.8
20260502040107 63 125 0.0 0.0 0.00 0.00 0.00 52 1014.3
20260502035827 63 127 0.0 0.0 0.00 0.00 0.00 57 1014.8
20260502035325 63 269 0.0 1.0 0.00 0.00 0.00 63 1014.8
20260502034820 63 208 0.0 1.0 0.00 0.00 0.00 62 1014.7
20260502034645 63 207 0.0 1.0 0.00 0.00 0.00 63 1014.1
20260502034324 65 267 0.0 1.0 0.00 0.00 0.00 61 1014.7
20260502033831 67 288 0.0 1.0 0.00 0.00 0.00 47 1014.5
20260502033337 67 113 0.0 1.0 0.00 0.00 0.00 45 1014.5
20260502033103 66 102 0.0 1.0 0.00 0.00 0.00 46 1013.9
20260502032903 67 105 0.0 0.0 0.00 0.00 0.00 47 1014.5
20260502032346 67 86 0.0 1.0 0.00 0.00 0.00 51 1014.6
20260502031829 67 86 0.0 1.0 0.00 0.00 0.00 49 1014.4
20260502031602 66 91 0.0 0.0 0.00 0.00 0.00 50 1013.7
20260502031401 66 94 0.0 0.0 0.00 0.00 0.00 53 1014.4
20260502030824 66 145 0.0 1.0 0.00 0.00 0.00 54 1014.4
20260502030319 67 313 0.0 1.0 0.00 0.00 0.00 55 1014.3
20260502025321 68 4 0.0 1.0 0.00 0.00 0.00 52 1014.2
20260502024823 69 4 0.0 1.0 0.00 0.00 0.00 49 1014.1
20260502024606 69 25 0.0 0.0 0.00 0.00 0.00 47 1013.6
20260502024321 69 25 0.0 1.0 0.00 0.00 0.00 46 1014.1
20260502023340 71 97 0.0 2.0 0.00 0.00 0.00 44 1014.0
20260502023059 70 105 0.0 2.0 0.00 0.00 0.00 43 1013.3
20260502022840 70 101 1.0 2.0 0.00 0.00 0.00 42 1013.9
20260502022357 69 97 1.0 3.0 0.00 0.00 0.00 44 1013.9
20260502021821 69 85 1.0 6.0 0.00 0.00 0.00 45 1014.0
20260502021616 68 40 2.0 6.0 0.00 0.00 0.00 46 1013.3
20260502021318 71 27 4.0 6.0 0.00 0.00 0.00 47 1013.8
20260502020848 72 50 0.0 0.0 0.00 0.00 0.00 39 1013.9
20260502020332 72 217 0.0 0.0 0.00 0.00 0.00 39 1013.9
20260502020007 70 215 0.0 3.0 0.00 0.00 0.00 43 1013.4
20260502015828 70 215 0.0 4.0 0.00 0.00 0.00 45 1013.9
20260502015335 69 149 1.0 4.0 0.00 0.00 0.00 47 1014.0
20260502014820 70 223 0.0 0.0 0.00 0.00 0.00 46 1014.2
20260502014533 70 118 0.0 0.0 0.00 0.00 0.00 42 1013.5
20260502014352 70 117 0.0 0.0 0.00 0.00 0.00 41 1014.1
20260502013831 70 117 0.0 0.0 0.00 0.00 0.00 40 1014.1
20260502013333 70 117 0.0 0.0 0.00 0.00 0.00 42 1014.1
20260502013108 69 114 0.0 1.0 0.00 0.00 0.00 43 1013.5
20260502012826 69 114 0.0 1.0 0.00 0.00 0.00 42 1014.2
20260502012323 69 115 0.0 0.0 0.00 0.00 0.00 42 1014.2
20260502011828 69 210 0.0 0.0 0.00 0.00 0.00 43 1014.2
20260502011559 68 210 0.0 0.0 0.00 0.00 0.00 42 1013.6
20260502011334 68 210 0.0 0.0 0.00 0.00 0.00 42 1014.1
20260502010840 68 206 0.0 0.0 0.00 0.00 0.00 44 1014.1
20260502010325 68 252 0.0 0.0 0.00 0.00 0.00 43 1014.2
20260502010112 68 252 0.0 0.0 0.00 0.00 0.00 43 1013.6
20260502005824 68 252 0.0 1.0 0.00 0.00 0.00 43 1014.2
20260502005343 67 236 0.0 1.0 0.00 0.00 0.00 45 1014.1
20260502004820 67 220 0.0 0.0 0.00 0.00 0.00 46 1014.3
20260502004609 67 286 0.0 1.0 0.00 0.00 0.00 47 1013.6
20260502004323 67 286 0.0 1.0 0.00 0.00 0.00 47 1014.2
20260502003833 68 287 0.0 1.0 0.00 0.00 0.00 47 1014.2
20260502003319 69 141 0.0 2.0 0.00 0.00 0.00 45 1014.1
20260502003109 68 162 0.0 2.0 0.00 0.00 0.00 47 1013.5
20260502002907 67 129 0.0 2.0 0.00 0.00 0.00 46 1014.1
20260502002354 67 243 0.0 1.0 0.00 0.00 0.00 49 1014.1
20260502001821 67 283 0.0 1.0 0.00 0.00 0.00 46 1014.1
20260502001606 67 266 0.0 0.0 0.00 0.00 0.00 49 1013.5
20260502001319 68 111 0.0 1.0 0.00 0.00 0.00 52 1014.2
20260502000824 67 30 0.0 2.0 0.00 0.00 0.00 50 1014.0
20260502000318 68 317 0.0 2.0 0.00 0.00 0.00 49 1014.1
20260502000014 68 3 0.0 1.0 0.00 0.00 0.00 44 1013.6
20260501235833 69 222 0.0 1.0 0.00 0.00 0.00 43 1014.0
20260501235408 68 236 0.0 1.0 0.00 0.00 0.00 48 1014.1
20260501234826 67 211 0.0 2.0 0.00 0.00 0.00 47 1014.1
20260501234601 66 226 0.0 2.0 0.00 0.00 0.00 48 1013.5
20260501234347 66 274 1.0 2.0 0.00 0.00 0.00 51 1014.1
20260501233841 66 210 1.0 4.0 0.00 0.00 0.00 54 1014.1
20260501233329 66 239 3.0 4.0 0.00 0.00 0.00 50 1014.1
20260501233114 66 243 3.0 4.0 0.00 0.00 0.00 49 1013.6
20260501232852 66 224 3.0 4.0 0.00 0.00 0.00 54 1014.2
20260501232355 66 198 1.0 5.0 0.00 0.00 0.00 59 1014.2